timestamp,surface_pressure_avg,surface_temp_avg,battery_voltage,lat,long
2018-12-25 00:00:00+00:00,361.3146,2.8,12.97,47.84626,-54.09684
2018-12-25 00:10:00+00:00,362.9846,2.8,12.89,47.84626,-54.09684
2018-12-25 00:20:00+00:00,370.3279,2.8,13.05,47.84626,-54.09684
2018-12-25 00:30:00+00:00,370.3696,2.8,13.05,47.84626,-54.09684
2018-12-25 00:40:00+00:00,366.0646,2.75,13.05,47.84626,-54.09684
2018-12-25 00:50:00+00:00,368.4095,2.8,13.05,47.84626,-54.09684
2018-12-25 01:00:00+00:00,372.7263,2.9,12.97,47.84626,-54.09684
2018-12-25 01:10:00+00:00,368.6796,2.8,12.89,47.84626,-54.09684
2018-12-25 01:20:00+00:00,362.6213,2.8,12.97,47.84626,-54.09684
2018-12-25 01:30:00+00:00,364.6097,2.8,12.97,47.84626,-54.09684
2018-12-25 01:40:00+00:00,365.1363,2.7,13.05,47.84626,-54.09684
2018-12-25 01:50:00+00:00,358.6046,2.7,13.05,47.84626,-54.09684
2018-12-25 02:00:00+00:00,355.4513,2.7,12.97,47.84626,-54.09684
2018-12-25 02:10:00+00:00,357.563,2.7,12.89,47.84626,-54.09684
2018-12-25 02:20:00+00:00,353.3696,2.7,12.97,47.84626,-54.09684
2018-12-25 02:30:00+00:00,346.358,2.7,12.97,47.84626,-54.09684
2018-12-25 02:40:00+00:00,344.8445,2.71,13.05,47.84626,-54.09684
2018-12-25 02:50:00+00:00,347.1795,2.79,13.05,47.84626,-54.09684
2018-12-25 03:00:00+00:00,341.843,2.8,12.97,47.84626,-54.09684
2018-12-25 03:10:00+00:00,332.5363,2.7,12.89,47.84626,-54.09684
2018-12-25 03:20:00+00:00,328.1096,2.7,12.97,47.84626,-54.09684
2018-12-25 03:30:00+00:00,321.753,2.7,12.97,47.84626,-54.09684
2018-12-25 03:40:00+00:00,308.3813,2.7,12.97,47.84626,-54.09684
2018-12-25 03:50:00+00:00,298.5547,2.7,13.05,47.84626,-54.09684
2018-12-25 04:00:00+00:00,291.3847,2.7,12.97,47.84626,-54.09684
2018-12-25 04:10:00+00:00,281.4214,2.76,12.89,47.84626,-54.09684
2018-12-25 04:20:00+00:00,268.6214,2.8,12.97,47.84626,-54.09684
2018-12-25 04:30:00+00:00,258.1631,2.78,12.97,47.84626,-54.09684
2018-12-25 04:40:00+00:00,249.4498,2.8,12.97,47.84626,-54.09684
2018-12-25 04:50:00+00:00,241.403,2.8,13.05,47.84626,-54.09684
2018-12-25 05:00:00+00:00,233.698,2.79,12.89,47.84626,-54.09684
2018-12-25 05:10:00+00:00,224.4614,2.79,12.89,47.84626,-54.09684
2018-12-25 05:20:00+00:00,217.3164,2.7,12.97,47.84626,-54.09684
2018-12-25 05:30:00+00:00,210.8331,2.6,12.97,47.84626,-54.09684
2018-12-25 05:40:00+00:00,202.8581,2.4,12.97,47.84626,-54.09684
2018-12-25 05:50:00+00:00,197.5948,2.4,12.97,47.84626,-54.09684
2018-12-25 06:00:00+00:00,196.1648,2.4,12.89,47.84626,-54.09684
2018-12-25 06:10:00+00:00,193.2715,2.4,12.81,47.84626,-54.09684
2018-12-25 06:20:00+00:00,188.8765,2.38,12.97,47.84626,-54.09684
2018-12-25 06:30:00+00:00,187.6648,2.39,12.97,47.84626,-54.09684
2018-12-25 06:40:00+00:00,188.0014,2.39,12.97,47.84626,-54.09684
2018-12-25 06:50:00+00:00,185.9931,2.4,12.97,47.84626,-54.09684
2018-12-25 07:00:00+00:00,187.0865,2.4,12.89,47.84626,-54.09684
2018-12-25 07:10:00+00:00,192.0898,2.4,12.81,47.84626,-54.09684
2018-12-25 07:20:00+00:00,194.5798,2.4,12.97,47.84626,-54.09684
2018-12-25 07:30:00+00:00,196.6998,2.46,12.97,47.84626,-54.09684
2018-12-25 07:40:00+00:00,199.6848,2.5,12.97,47.84626,-54.09684
2018-12-25 07:50:00+00:00,204.1915,2.5,12.97,47.84626,-54.09684
2018-12-25 08:00:00+00:00,208.8864,2.5,12.89,47.84626,-54.09684
2018-12-25 08:10:00+00:00,212.3365,2.56,12.81,47.84626,-54.09684
2018-12-25 08:20:00+00:00,216.3831,2.59,12.97,47.84626,-54.09684
2018-12-25 08:30:00+00:00,222.1482,2.6,12.97,47.84626,-54.09684
2018-12-25 08:40:00+00:00,226.2631,2.6,12.97,47.84626,-54.09684
2018-12-25 08:50:00+00:00,230.3514,2.6,12.97,47.84626,-54.09684
2018-12-25 09:00:00+00:00,235.8198,2.6,12.89,47.84626,-54.09684
2018-12-25 09:10:00+00:00,240.8964,2.6,12.81,47.84626,-54.09684
2018-12-25 09:20:00+00:00,242.8948,2.6,12.97,47.84626,-54.09684
2018-12-25 09:30:00+00:00,247.4314,2.6,12.97,47.84626,-54.09684
2018-12-25 09:40:00+00:00,254.8081,2.6,12.97,47.84626,-54.09684
2018-12-25 09:50:00+00:00,261.8381,2.6,12.97,47.84626,-54.09684
2018-12-25 10:00:00+00:00,268.1747,2.6,12.89,47.84626,-54.09684
2018-12-25 10:10:00+00:00,276.993,2.64,12.81,47.84626,-54.09684
2018-12-25 10:20:00+00:00,287.8214,2.67,12.97,47.84626,-54.09684
2018-12-25 10:30:00+00:00,295.4414,2.7,12.97,47.84626,-54.09684
2018-12-25 10:40:00+00:00,300.398,2.7,12.97,47.84626,-54.09684
2018-12-25 10:50:00+00:00,311.2714,2.8,12.97,47.84626,-54.09684
2018-12-25 11:00:00+00:00,321.4796,2.8,12.89,47.84626,-54.09684
2018-12-25 11:10:00+00:00,327.633,2.88,12.81,47.84626,-54.09684
2018-12-25 11:20:00+00:00,336.9796,2.9,12.97,47.84626,-54.09684
2018-12-25 11:30:00+00:00,353.2313,2.9,12.97,47.84626,-54.09684
2018-12-25 11:40:00+00:00,359.7213,2.9,12.97,47.84626,-54.09684
2018-12-25 11:50:00+00:00,360.5496,2.9,12.97,47.84626,-54.09684
2018-12-25 12:00:00+00:00,368.4913,2.85,12.89,47.84626,-54.09684
2018-12-25 12:10:00+00:00,379.7897,2.84,12.81,47.84626,-54.09684
2018-12-25 12:20:00+00:00,383.0279,2.87,12.97,47.84626,-54.09684
2018-12-25 12:30:00+00:00,383.7812,2.82,12.97,47.84626,-54.09684
2018-12-25 12:40:00+00:00,393.9462,2.8,12.97,47.84626,-54.09684
2018-12-25 12:50:00+00:00,398.5946,2.8,12.97,47.84626,-54.09684
2018-12-25 13:00:00+00:00,397.7529,2.8,12.89,47.84626,-54.09684
2018-12-25 13:10:00+00:00,404.288,2.8,12.81,47.84626,-54.09684
2018-12-25 13:20:00+00:00,409.4662,2.8,12.97,47.84626,-54.09684
2018-12-25 13:30:00+00:00,406.6846,2.8,12.97,47.84626,-54.09684
2018-12-25 13:40:00+00:00,409.0829,2.8,12.97,47.84626,-54.09684
2018-12-25 13:50:00+00:00,416.4879,2.79,13.05,47.84626,-54.09684
2018-12-25 14:00:00+00:00,414.0446,2.79,12.97,47.84626,-54.09684
2018-12-25 14:10:00+00:00,407.0013,2.77,12.89,47.84626,-54.09684
2018-12-25 14:20:00+00:00,409.9879,2.74,12.97,47.84626,-54.09684
2018-12-25 14:30:00+00:00,409.9462,2.75,13.05,47.84626,-54.09684
2018-12-25 14:40:00+00:00,402.8263,2.75,13.05,47.84626,-54.09684
2018-12-25 14:50:00+00:00,402.0379,2.74,13.13,47.84626,-54.09684
2018-12-25 15:00:00+00:00,401.4846,2.75,13.05,47.84626,-54.09684
2018-12-25 15:10:00+00:00,393.7712,2.75,12.97,47.84626,-54.09684
2018-12-25 15:20:00+00:00,387.2429,2.76,13.05,47.84626,-54.09684
2018-12-25 15:30:00+00:00,382.5779,2.77,13.13,47.84626,-54.09684
2018-12-25 15:40:00+00:00,372.6229,2.78,13.21,47.84626,-54.09684
2018-12-25 15:50:00+00:00,357.843,2.77,13.29,47.84626,-54.09684
2018-12-25 16:00:00+00:00,349.6796,2.76,13.21,47.84626,-54.09684
2018-12-25 16:10:00+00:00,341.3347,2.77,13.13,47.84626,-54.09684
2018-12-25 16:20:00+00:00,326.2931,2.76,13.21,47.84626,-54.09684
2018-12-25 16:30:00+00:00,315.0997,2.77,13.21,47.84626,-54.09684
2018-12-25 16:40:00+00:00,305.9063,2.76,13.29,47.84626,-54.09684
2018-12-25 16:50:00+00:00,291.113,2.74,13.21,47.84626,-54.09684
2018-12-25 17:00:00+00:00,276.838,2.74,13.13,47.84626,-54.09684
2018-12-25 17:10:00+00:00,269.0198,2.76,13.13,47.84626,-54.09684
2018-12-25 17:20:00+00:00,259.6931,2.74,13.21,47.84626,-54.09684
2018-12-25 17:30:00+00:00,244.7513,2.71,13.21,47.84626,-54.09684
2018-12-25 17:40:00+00:00,235.0598,2.72,13.21,47.84626,-54.09684
2018-12-25 17:50:00+00:00,231.2864,2.75,13.21,47.84626,-54.09684
2018-12-25 18:00:00+00:00,222.6647,2.78,13.13,47.84626,-54.09684
2018-12-25 18:10:00+00:00,210.7714,2.7,13.05,47.84626,-54.09684
2018-12-25 18:20:00+00:00,207.7947,2.7,13.05,47.84626,-54.09684
2018-12-25 18:30:00+00:00,207.8148,2.7,13.05,47.84626,-54.09684
2018-12-25 18:40:00+00:00,200.5247,2.66,13.13,47.84626,-54.09684
2018-12-25 18:50:00+00:00,194.8031,2.6,13.13,47.84626,-54.09684
2018-12-25 19:00:00+00:00,196.0414,2.6,13.05,47.84626,-54.09684
2018-12-25 19:10:00+00:00,193.9248,2.6,12.97,47.84626,-54.09684
2018-12-25 19:20:00+00:00,189.9915,2.6,12.97,47.84626,-54.09684
2018-12-25 19:30:00+00:00,191.0314,2.6,12.97,47.84626,-54.09684
2018-12-25 19:40:00+00:00,195.1732,2.6,12.97,47.84626,-54.09684
2018-12-25 19:50:00+00:00,197.2065,2.6,12.97,47.84626,-54.09684
2018-12-25 20:00:00+00:00,198.0465,2.68,12.89,47.84626,-54.09684
2018-12-25 20:10:00+00:00,202.3148,2.7,12.81,47.84626,-54.09684
2018-12-25 20:20:00+00:00,208.4348,2.7,12.97,47.84626,-54.09684
2018-12-25 20:30:00+00:00,213.8398,2.7,12.97,47.84626,-54.09684
2018-12-25 20:40:00+00:00,216.1747,2.7,12.97,47.84626,-54.09684
2018-12-25 20:50:00+00:00,219.1931,2.7,12.97,47.84626,-54.09684
2018-12-25 21:00:00+00:00,224.4081,2.7,12.89,47.84626,-54.09684
2018-12-25 21:10:00+00:00,227.7447,2.7,12.81,47.84626,-54.09684
2018-12-25 21:20:00+00:00,229.4498,2.7,12.89,47.84626,-54.09684
2018-12-25 21:30:00+00:00,231.4831,2.7,12.89,47.84626,-54.09684
2018-12-25 21:40:00+00:00,235.0848,2.7,12.97,47.84626,-54.09684
2018-12-25 21:50:00+00:00,237.8064,2.7,12.97,47.84626,-54.09684
2018-12-25 22:00:00+00:00,241.8681,2.75,12.89,47.84626,-54.09684
2018-12-25 22:10:00+00:00,246.1781,2.8,12.81,47.84626,-54.09684
2018-12-25 22:20:00+00:00,252.9331,2.8,12.89,47.84626,-54.09684
2018-12-25 22:30:00+00:00,259.4763,2.8,12.89,47.84626,-54.09684
2018-12-25 22:40:00+00:00,266.5164,2.86,12.97,47.84626,-54.09684
2018-12-25 22:50:00+00:00,271.8448,2.89,12.97,47.84626,-54.09684
2018-12-25 23:00:00+00:00,279.7414,2.89,12.89,47.84626,-54.09684
2018-12-25 23:10:00+00:00,286.1564,2.88,12.81,47.84626,-54.09684
2018-12-25 23:20:00+00:00,291.4581,2.89,12.89,47.84626,-54.09684
2018-12-25 23:30:00+00:00,296.3347,2.88,12.89,47.84626,-54.09684
2018-12-25 23:40:00+00:00,304.6097,2.88,12.97,47.84626,-54.09684
2018-12-25 23:50:00+00:00,311.9597,2.89,12.97,47.84626,-54.09684
